Вернуться в каталог

CZ-4B DEB

АктивенLEO
NORAD 43430·DEBRIS·🇨🇳 China

Запущен Jun 15, 2017 с Jiuquan Satellite Launch Center

Loading…

Ближайшие Пролёты (ближайшие 24 часа)

TLE

СвежийSource: Space-Track

Эпоха: Sep 14, 2026, 13:09 UTC

1 43430U 17034F   26257.54830758  .00006869  00000-0  52029-3 0  9991
2 43430  42.9911 333.2777 0120760  15.6831 344.7701 14.97152901489774

Отслеживайте CZ-4B DEB в реальном времени с AllMySat

Download on the App Store